Location: Brno
(49.2000°N, 16.6330°E)
Time: 08:12:22
(UTC+02:00)

X-37B - Pass Details

Date: 21 June 2021
Orbit: 383 x 392 km, 45.0° (Epoch: 01 July)

Event Time Altitude Azimuth Distance (km) Brightness Sun altitude
Exits shadow 03:05:29 16° 247° (WSW) 1,114 2.4 -11.8°
Maximum altitude 03:07:23 28° 195° (SSW) 756 1.5 -11.6°
Drops below altitude 10° 03:10:10 10° 134° (SE) 1,404 3.3 -11.4°
Sets 03:12:23 0° 122° (ESE) 2,258 4.5 -11.2°
